Flag for Trinidad and Tobago Weather past 2 weeks in Port of Spain, Trinidad and Tobago

Now
79 °F

Passing clouds.


Feels Like: 82 °F
Forecast: 79 / 86 °F
Wind: No wind

Location: Piarco International Airport - Trinidad

Current Time: Jul 28, 2015 at 4:42:58 AM

Latest Report: Jul 28, 2015 at 4:00 AM


Visibility: N/A

Pressure: 29.89 "Hg

Humidity: 89%

Dew point: 75 °F

Location of Port of SpainLocation

Historic Weather in Port of Spain — Graph

°F

Port of Spain temperature yesterday

Maximum temperature yesterday: 90 °F (at 2:00 PM)
Minimum temperature yesterday: 75 °F (at 4:00 AM)
Average temperature yesterday: 83 °F

Past Weeks' High & Low Weather Summary

 TemperatureHumidityPressure
High91 °F (Jul 20, 11:00 AM)100% (Jul 16, 7:00 PM)30.04 "Hg (Jul 16, 7:00 PM)
Low75 °F (Jul 13, 3:00 AM)52% (Jul 18, 2:00 PM)29.86 "Hg (Jul 15, 5:00 PM)
Average82 °F79%29.95 "Hg
* Reported Jul 13 3:00 AM — Jul 28 3:00 AM, Port of Spain, Weather by CustomWeather, © 2015

Note: Actual official high and low records may vary slightly from our data, if they occured in-between our weather recording intervals... More about our weather records

Advertising

Port of Spain weather history for previous 24 hours

 ConditionsComfort  
Time TempWeatherWind HumidityBarometerVisibility
3:00 AM
Tue, Jul 28
77 °FPassing clouds.No wind89%29.89 "HgN/A
2:00 AM77 °FSprinkles. Passing clouds.No wind89%29.89 "HgN/A
1:00 AM77 °FPassing clouds.No wind89%29.92 "HgN/A
12:00 AM77 °FScattered showers. Passing clouds.No wind89%29.92 "HgN/A
11:00 PM
Mon, Jul 27
79 °FScattered showers. Passing clouds.No wind84%29.95 "HgN/A
10:00 PM81 °FPassing clouds.3 mph79%29.95 "HgN/A
9:00 PM81 °FPassing clouds.5 mph79%29.95 "HgN/A
8:00 PM81 °FPassing clouds.7 mph79%29.92 "HgN/A
7:00 PM82 °FPassing clouds.8 mph74%29.92 "HgN/A
6:00 PM84 °FPassing clouds.14 mph70%29.89 "HgN/A
5:00 PM86 °FPassing clouds.14 mph70%29.86 "HgN/A
4:00 PM88 °FPassing clouds.12 mph62%29.86 "HgN/A
3:00 PM90 °FScattered clouds.14 mph59%29.89 "HgN/A
2:00 PM90 °FPartly sunny.17 mph55%29.92 "HgN/A
1:00 PM88 °FScattered clouds.15 mph62%29.92 "HgN/A
12:00 PM88 °FSprinkles. Partly sunny.7 mph66%29.95 "Hg4 mi
11:00 AM88 °FScattered clouds.9 mph62%29.95 "HgN/A
10:00 AM88 °FScattered clouds.14 mph62%29.98 "HgN/A
9:00 AM86 °FScattered clouds.9 mph70%29.98 "HgN/A
8:00 AM82 °FPassing clouds.No wind79%29.95 "HgN/A
7:00 AM77 °FPassing clouds.No wind89%29.95 "HgN/A
6:00 AM75 °FPassing clouds.No wind94%29.95 "HgN/A
4:00 AM75 °FPassing clouds.No wind89%29.92 "HgN/A
Weather by CustomWeather, © 2015

See weather overviewHow to use our weather pages